Flag for Germany Weather past 2 weeks in Forchheim, Bavaria, Germany

Now
45 °F

Sunny.


Feels Like: 45 °F
Forecast: 56 / 80 °F
Wind: 1 mph from East

Location: Bamberg

Current Time: Jul 31, 2015 at 8:01:56 AM

Latest Report: Jul 31, 2015 at 7:00 AM


Visibility: 12 mi

Pressure: 30.13 "Hg

Humidity: 92%

Dew point: 43 °F

Location of ForchheimLocation

Historic Weather in Forchheim — Graph

°F

Forchheim temperature yesterday

Maximum temperature yesterday: 70 °F (at 4:00 PM)
Minimum temperature yesterday: 44 °F (at 5:00 AM)
Average temperature yesterday: 59 °F

Past Weeks' High & Low Weather Summary

 TemperatureHumidityPressure
High95 °F (Jul 22, 4:00 PM)99% (Jul 23, 2:00 AM)30.13 "Hg (Jul 23, 2:00 AM)
Low44 °F (Jul 31, 4:00 AM)19% (Jul 17, 6:00 PM)29.64 "Hg (Jul 25, 1:00 AM)
Average69 °F65%29.90 "Hg
* Reported Jul 16 7:00 AM — Jul 31 7:00 AM, Forchheim, Weather by CustomWeather, © 2015

Note: Actual official high and low records may vary slightly from our data, if they occured in-between our weather recording intervals... More about our weather records

Advertising

Forchheim weather history for previous 24 hours

 ConditionsComfort  
Time TempWeatherWind HumidityBarometerVisibility
7:00 AM
Fri, Jul 31
45 °FSunny.1 mph92%30.13 "Hg12 mi
5:00 AM44 °FClear.1 mph97%30.11 "Hg16 mi
4:00 AM44 °FClear.1 mph95%30.10 "Hg15 mi
3:00 AM46 °FPassing clouds.1 mph94%30.09 "Hg22 mi
2:00 AM49 °FOvercast.No wind94%30.08 "Hg28 mi
1:00 AM51 °FOvercast.1 mph85%30.07 "Hg43 mi
11:00 PM
Thu, Jul 30
51 °FClear.1 mph86%30.04 "Hg37 mi
10:00 PM62 °FPassing clouds.3 mph50%30.01 "Hg43 mi
9:00 PM60 °FScattered clouds.1 mph67%29.99 "Hg43 mi
8:00 PM68 °FScattered clouds.2 mph40%29.96 "Hg43 mi
7:00 PM67 °FScattered clouds.3 mph39%29.95 "Hg43 mi
6:00 PM68 °FPartly sunny.5 mph38%29.95 "Hg43 mi
5:00 PM67 °FOvercast.6 mph39%29.95 "Hg43 mi
4:00 PM70 °FPartly sunny.6 mph39%29.95 "HgN/A
3:00 PM66 °FOvercast.6 mph40%29.96 "Hg43 mi
2:00 PM69 °FPassing clouds.8 mph37%29.95 "Hg25 mi
1:00 PM68 °FScattered clouds.6 mph41%29.96 "Hg34 mi
12:00 PM65 °FPassing clouds.7 mph43%29.96 "Hg28 mi
10:00 AM62 °FSunny.2 mph56%29.98 "Hg34 mi
9:00 AM57 °FSunny.2 mph68%29.98 "Hg19 mi
8:00 AM54 °FSunny.1 mph84%29.99 "Hg14 mi
Weather by CustomWeather, © 2015

See weather overviewHow to use our weather pages